Regional Weather Roundup
Issued by NWS Wakefield, VA

Home | Current Version | Previous Version | Graphics & Text | Print | Product List | Glossary On
Versions: 1 2 3 4 5 6 7 8 9 10 11 12 13 14 15 16 17 18 19 20 21 22 23 24 25 26 27
000
ASUS41 KAKQ 291615
RWRAKQ

REGIONAL WEATHER ROUNDUP
NATIONAL WEATHER SERVICE WAKEFIELD VA
1200 PM EDT THU SEP 29 2016

Note: "fair" indicates few or no clouds below 12,000 feet with no
significant weather and/or obstructions to visibility. * = Denotes
station may not report precipitation (e.g., rain,snow,etc.),
thunder or fog.

VAZ042-051-052>054-056-291700-
NORTHERN VIRGINIA

CITY           SKY/WX    TMP DP  RH WIND       PRES   REMARKS
WASH NATIONAL  CLOUDY    70  68  93 E18G24    30.15R FOG
DULLES         LGT RAIN  68  66  93 E14G24    30.14R FOG
FORT BELVOIR   CLOUDY    69  67  91 VRB5      30.13S
QUANTICO       CLOUDY    72  68  87 E15       30.13R
FREDERICKSBRG* CLOUDY    72  72 100 E12G20    30.09S
STAFFORD*      CLOUDY    70  69  97 E10G17    30.15S FOG
WARRENTON      CLOUDY    72  65  79 E13G20    30.11S
CULPEPER*      CLOUDY    71  70  97 E7        30.12R
MANASSAS*      LGT RAIN  70  68  94 E12G21    30.13R
LEESBURG*      CLOUDY    68  68 100 E14G24    30.15R FOG
WINCHESTER     LGT RAIN  66  64  94 E9          N/A
FRONT ROYAL*   CLOUDY    66  66 100 N5        30.10S
LURAY*         PTSUNNY   72  70  94 CALM      30.11S
$$

VAZ048-049-060>072-079>083-291700-
CENTRAL AND SOUTH CENTRAL VIRGINIA

CITY           SKY/WX    TMP DP  RH WIND       PRES   REMARKS
RICHMOND       CLOUDY    74  70  87 E5        30.08R
CHESTERFIELD*  CLOUDY    73  59  60 E6        30.09R
PETERSBURG*    CLOUDY   N/A N/A N/A NE6       30.07S
HANOVER        CLOUDY    73  69  87 NE8       30.10
TAPPAHANNOCK*  CLOUDY    74  73  93 E14G21    30.09S
QUINTON*       CLOUDY    74  71  88 NE5       30.08R
CHARLOTTSVILLE CLOUDY    73  68  84 SE7       30.09S
GORDONSVILLE*  CLOUDY    72  70  94 NE3       30.09S
ORANGE*        LGT RAIN  72  72 100 NE7       30.11S
LOUISA*        CLOUDY    75  72  88 E7        30.09R
BUMPASS*       CLOUDY    73  71  94 E8        30.10R
FARMVILLE*     CLOUDY    75  70  84 E7        30.07S HAZE
CREWE*         CLOUDY    71  71 100 CALM      30.08R
FORT PICKETT*  CLOUDY    71  67  88 N7        30.07S
CHASE CITY*    CLOUDY    71  69  94 CALM      30.07S
CLARKSVILLE*   PTSUNNY   72  70  94 E3        30.06R
SOUTH HILL*    CLOUDY    71  69  92 CALM      30.12R
LAWRENCEVILLE* CLOUDY    71  68  90 CALM      30.06R
EMPORIA*         N/A     72  72 100 CALM      30.07R
$$

VAZ088>098-291700-
SOUTHEAST VIRGINIA

CITY           SKY/WX    TMP DP  RH WIND       PRES   REMARKS
NORFOLK        CLOUDY    76  73  91 NE14      30.07S
VIRGINIA BEACH CLOUDY    76  71  85 NE13      30.06S
NORFOLK NAVAL  PTSUNNY   77  72  84 E13G22    30.08F
WEST POINT*    PTSUNNY   78  70  76 E18G26    30.07F
SALUDA*        CLOUDY    73  71  96 E13G21    30.09S
NEWPORT NEWS   CLOUDY    77  72  84 E14       30.07F
LANGLEY AFB    PTSUNNY   77  72  84 E15       30.07S
FORT EUSTIS    CLOUDY    78  71  79 E10       30.04S
WILLIAMSBURG*  CLOUDY    79  72  78 E9G16     30.07S
HR EXEC AP*    FAIR      79  73  83 E8        30.08S
FRANKLIN*      CLOUDY    76  73  90 E3        30.06R
US460-WAKEFLD  LGT RAIN  76  72  87 E5        30.06R
$$

VAZ020-022-025-037-045-291700-
WEST CENTRAL AND SOUTHWEST VIRGINIA

CITY           SKY/WX    TMP DP  RH WIND       PRES   REMARKS
STAUNTON*      CLOUDY    70  63  77 SE5       30.12S
WAYNESBORO*    CLOUDY    68  63  84 SE5       30.12R
HOT SPRINGS VA RAIN      52  52 100 E8G18     30.14R VSB<1/4
LYNCHBURG      PTSUNNY   74  63  68 NE8       30.09R
DANVILLE       CLOUDY    72  65  78 VRB5      30.06S
SOUTH BOSTON*  CLOUDY    73  67  84 CALM      30.07R
MARTINSVILLE   CLOUDY    69  63  82 E5        30.08S
ROANOKE        CLOUDY    68  65  90 E9        30.10R
BLACKSBURG     CLOUDY    66  63  89 E9        30.11S
DUBLIN*        CLOUDY    69  61  75 E10       30.08S
MARION*        CLOUDY    70  60  70 E12G21    30.07S
HILLSVILLE*    CLOUDY    65  62  90 SE10G18   30.07S
RICHLANDS*     TSTM      65  59  81 E5        30.03S
WISE*          CLOUDY    59  46  63 NW5       30.05F
ABINGDON*      CLOUDY    68  59  73 NW3       30.01S
$$

MDZ021>025-VAZ099-100-291700-
SOUTHERN MARYLAND AND THE DELMARVA PENINSULA

CITY           SKY/WX    TMP DP  RH WIND       PRES   REMARKS
PATUXENT RIVER CLOUDY    73  67  81 E17G28    30.11F
BAY BRIDGE APT CLOUDY    68  66  94 MISG      30.16F FOG
LEONARDTOWN    CLOUDY    70  64  83 E10G21    30.13S
DOVER          LGT RAIN  67  67 100 E25G37    30.20R
GEORGETOWN     RAIN      68  32  26 E21G36    30.19R
EASTON         CLOUDY    72  66  83 E14G26    30.20R
CAMBRIDGE      PTSUNNY   70  64  83 E21G28    30.15R
SALISBURY      LGT RAIN  69  67  93 E24G31    30.15R
OCEAN CITY     HVY RAIN N/A N/A N/A E25G35    30.19R
WALLOPS ISLAND PTSUNNY   73  70  90 NE29G39   30.13S
ACCOMACK*      CLOUDY    76  68  75 E21G26    30.12S
$$

NCZ012>017-030>032-291700-
NORTH CENTRAL AND EASTERN NORTH CAROLINA

CITY           SKY/WX    TMP DP  RH WIND       PRES   REMARKS
ROANOKE RAPIDS LGT RAIN  72  70  94 CALM      30.03S
RALEIGH        PTSUNNY   72  67  84 E5        30.06R
ELIZABETH CITY CLOUDY    79  73  82 E12       30.06R
AHOSKIE*       CLOUDY    72  72  98 CALM      30.06S
EDENTON*       CLOUDY    80  79  95 E5        30.06S
CURRITUCK*     NOT AVBL
KILL DEVIL HLS CLOUDY    79  77  95 NE3       30.04S
MANTEO         DRIZZLE   77  75  94 E7        30.06R
CAPE HATTERAS  MOSUNNY   85  72  65 SE7       30.04R
TARBORO*       RAIN      71  70  98 E7        30.06S
GOLDSBORO      LGT RAIN  69  69 100 E14       30.03S
WASHINGTON     CLOUDY    77  74  89 N6        30.06R
GREENVILLE     LGT RAIN  72  70  94 CALM      30.08S
NEW BERN       LGT RAIN  78  75  90 SW3       30.06R
WILMINGTON     CLOUDY    73  67  81 NW9       30.04R
$$

VAZ048-291700-
ELSEWHERE

CITY           SKY/WX    TMP DP  RH WIND       PRES   REMARKS
HARRISBURG PA  CLOUDY    61  60  97 E12G22    30.24R
BALTIMORE      LGT RAIN  66  64  93 E21G28    30.17R FOG
ANNAPOLIS      CLOUDY    70  66  87 E14G26    30.16S FOG
ANDREWS AFB    CLOUDY    68  66  94 E17G23    30.14R
PHILADELPHIA   CLOUDY    65  61  87 E20G33    30.27F
HENDERSON NC   PTSUNNY   68  64  86 CALM      30.07R
GREENSBORO     PTSUNNY   74  66  76 SE14      30.03R
ROCKY MOUNT    CLOUDY    70  69  97 CALM      30.05R
$$

VAZ100-291700-
MARINE

STATION/POSITION TIME  TEMP    WIND        PRES    WAVE   SWELL
                       AIR SEA DIR/SP/G            HT/PER HT/PER
                 (UTC) (F)     (DEG/KT/KT) (MB)    (FT/S) (FT/S)
BRANDYWINE LGT   1548   67      90/ 32/ 37   N/A
CAPE MAY NJ      1548   67 71   70/ 14/ 25 1022.7R
LEWES DE         1548   69 70   90/ 30/ 38 1022.2R
OCEAN-CITY-INLET 1542   68 72   80/ 19/ 26 1022.5R
WACHAPREAGUE VA  1548   73 74   40/ 21/ 26 1019.9R
THOMAS POINT MD  1600   69 73   80/ 25/ 30 1021.8F
GOOSES REEF MD   1600   72 74  110/ 21/ 25 1020.3    3/ 3
COVE POINT MD    1548   71     120/ 17/ 24 1020.6R
SOLOMONS ISLAND  1542   72 74   80/ 22/ 27   N/A
BISHOPS HEAD MD  1548   72 72   80/ 22/ 28 1020.0F
PINEY POINT MD   1548          110/ 20/ 23   N/A
POTOMAC MD       1600   73 74  100/ 21/ 27 1018.6    3/ 3
CAMBRIDGE MD     1548   71 72   80/ 19/ 26 1019.8R
LEWISETTA VA     1548   73 72  110/ 26/ 31 1018.8R
RAPPAHANNOCK LGT 1548           70/ 21/ 23 1019.6S
STINGRAY PT      1600   75 75   30/ 19/ 21 1018.9    3/ 3
YORK RVR RNG VA  1548   76      80/ 21/ 23 1017.9F
YORKTOWN VA      1548   76 76   80/ 13/ 15 1017.9F
JAMESTOWN VA     1600   75 77  100/ 14/ 19   N/A
DOMINION TERM VA 1548   76      60/ 13/ 16 1018.3F
KIPTOPEKE VA     1548      75   70/ 14/ 20   N/A
CHES BAY BRIDGE  1548   75 76   40/ 19/ 21 1018.3R
CAPE HENRY VA    1548   75      50/ 20/ 22   N/A
WILLOUBY STN VA  1548   76      70/ 14/ 18   N/A
CAPE HENRY BUOY  1542      76                N/A     5/ 8   2/11
1ST LANDING BUOY 1600   75 76   90/ 17/ 21 1018.2    3/ 4
CAPE CHARLES BUO 1456      77                N/A     5/ 7   2/11
OFFSHORE WE BUOY 1551      75                N/A     6/ 7   2/11
64NM E OF VA BCH 1550   76 75   60/  8/ 10 1017.7F   5/ 8   5/ 8
DUCK PIER NC     1548   77 77   40/ 10/ 10 1017.1F
44056 DUCK FRF   1541      77                N/A     4/ 8   2/11
OREGON INLET NC  1548   79 77   30/  7/  9 1017.4R
HATTERAS NC      1548   81 78  100/  5/  8 1017.0R
DIAMOND SHLS NC  1550   80 83   30/  4/  4 1017.0R   3/11   3/11
CAPE LOOKOUT NC  1600   80      70/  6/  6 1016.9R
$$




USA.gov is the U.S. government's official web portal to all federal, state and local government web resources and services.